Flag for Germany Weather past 2 weeks in Schorndorf, Baden-Württemberg, Germany

Now
54 °F

Overcast.


Feels Like: 54 °F
Forecast: 48 / 61 °F
Wind: 2 mph from West

Location: Stuttgart-Echterdingen

Current Time: Sep 5, 2015 at 2:03:57 AM

Latest Report: Sep 5, 2015 at 1:00 AM


Visibility: 37 mi

Pressure: 30.03 "Hg

Humidity: 63%

Dew point: 42 °F

Location of SchorndorfLocation

Historic Weather in Schorndorf — Graph

°F

Schorndorf temperature yesterday

Maximum temperature yesterday: 66 °F (at 1:00 PM)
Minimum temperature yesterday: 51 °F (at 7:00 AM)
Average temperature yesterday: 59 °F

Past Weeks' High & Low Weather Summary

 TemperatureHumidityPressure
High92 °F (Aug 30, 4:00 PM)97% (Aug 21, 7:00 AM)30.28 "Hg (Aug 21, 7:00 AM)
Low48 °F (Aug 26, 7:00 AM)25% (Aug 31, 6:00 PM)29.67 "Hg (Aug 24, 2:00 PM)
Average67 °F65%29.99 "Hg
* Reported Aug 21 1:00 AM — Sep 5 1:00 AM, Schorndorf, Weather by CustomWeather, © 2015

Note: Actual official high and low records may vary slightly from our data, if they occured in-between our weather recording intervals... More about our weather records

Advertising

Schorndorf weather history for previous 24 hours

 ConditionsComfort  
Time TempWeatherWind HumidityBarometerVisibility
1:00 AM
Sat, Sep 5
54 °FOvercast.2 mph63%30.03 "Hg37 mi
11:00 PM
Fri, Sep 4
58 °FOvercast.2 mph54%30.01 "Hg37 mi
10:00 PM58 °FPassing clouds.2 mph53%30.01 "Hg37 mi
9:00 PM58 °FPassing clouds.2 mph52%30.00 "Hg37 mi
8:00 PM61 °FPassing clouds.5 mph46%29.97 "Hg43 mi
7:00 PM63 °FScattered clouds.5 mph42%29.97 "Hg43 mi
6:00 PM64 °FScattered clouds.6 mph42%29.95 "Hg43 mi
5:00 PM65 °FPartly sunny.5 mph42%29.96 "Hg43 mi
4:00 PM64 °FScattered clouds.7 mph45%29.97 "Hg43 mi
3:00 PM65 °FScattered clouds.3 mph44%29.98 "Hg43 mi
2:00 PM65 °FPartly sunny.6 mph45%29.99 "Hg43 mi
1:00 PM66 °FScattered clouds.3 mph42%29.99 "Hg43 mi
12:00 PM62 °FPartly sunny.3 mph48%30.02 "Hg40 mi
11:00 AM59 °FOvercast.3 mph58%30.03 "Hg40 mi
10:00 AM59 °FOvercast.2 mph61%30.02 "Hg31 mi
9:00 AM56 °FPartly sunny.2 mph76%30.02 "Hg31 mi
8:00 AM54 °FLight rain. Partly sunny.1 mph81%30.02 "Hg37 mi
7:00 AM51 °FScattered clouds.1 mph85%30.02 "Hg37 mi
5:00 AM54 °FPassing clouds.1 mph78%30.02 "Hg37 mi
4:00 AM56 °FOvercast.1 mph72%30.01 "Hg37 mi
3:00 AM56 °FOvercast.1 mph74%30.01 "Hg37 mi
2:00 AM57 °FPassing clouds.1 mph71%30.01 "Hg37 mi
Weather by CustomWeather, © 2015

See weather overviewHow to use our weather pages